Regional Weather Roundup
Issued by NWS

Home | Current Version | Previous Version | Text Only | Print | Product List | Glossary Off
Versions: 1 2 3 4 5 6 7 8 9 10 11 12 13 14 15 16 17 18 19 20 21 22 23 24 25 26 27 28 29 30 31 32 33 34 35 36 37 38 39 40 41 42 43 44 45 46 47 48 49 50

376
ASUS44 KLIX 242210
RWRLA
LOUISIANA WEATHER ROUNDUP
NATIONAL WEATHER SERVICE NEW ORLEANS LA
500 PM CDT THU JUL 24 2014

NOTE: "FAIR" INDICATES FEW OR NO CLOUDS BELOW 12,000 FEET WITH NO
      SIGNIFICANT WEATHER AND/OR OBSTRUCTIONS TO VISIBILITY.
      SKY/WX - SKY CONDITION AND SIGNIFICANT WEATHER.
      TMP - AIR TEMPERATURE.    DP   - DEWPOINT TEMPERATURE.
      RH  - RELATIVE HUMIDITY.  PRES - PRESSURE.
      HX  - HEAT INDEX.         WCI  - WIND CHILL INDEX.

*  THESE STATIONS ARE NOT NWS OR FAA STATIONS AND ARE NOT UNDER
   NWS QUALITY CONTROL.

LAZ040-048-061>063-065-066-069-242300-
SOUTHEAST LOUISIANA

CITY           SKY/WX    TMP DP  RH WIND       PRES   REMARKS
N.O. AUDUBON     N/A     78  76  93 MISG        N/A
N.O. INTL ARPT PTSUNNY   88  75  65 S6        29.94F HX  97
N.O. LAKEFRONT MOSUNNY   87  70  56 CALM      29.95F
N.O. DOWNTOWN* FAIR      84  72  65 S5        29.95F
SLIDELL        PTSUNNY   86  75  69 CALM      29.93F HX  95
BATON ROUGE    SUNNY     82  73  74 CALM      29.95F
BOOTHVILLE     SUNNY     84  74  71 SW13      29.96F
BELLE CHASSE   PTSUNNY   84  73  69 CALM      29.94F
BOGALUSA*      FAIR      92  69  47 CALM      29.95F HX  96
GALLIANO*      NOT AVBL
NEW ROADS*     FAIR      88  73  61 NW5       29.95F HX  96
GONZALES*      MOCLDY    91  72  53 CALM      29.93F HX  97
HAMMOND*       SUNNY     93  66  40 NE5       29.95F HX  96
HOUMA*         MOSUNNY   90  68  48 W3        29.95S
PORT FOURCHON* CLEAR     86  75  70 SW12      29.97F HX  95

$$

LAZ041-044-053-054-242300-
SOUTHWEST LOUISIANA

CITY           SKY/WX    TMP DP  RH WIND       PRES   REMARKS
LAKE CHARLES   MOSUNNY   91  72  53 N9        29.94F HX  98
LAFAYETTE      PTSUNNY   84  74  71 W9        29.96F
PATTERSON      SUNNY     90  73  58 W10       29.99F HX  98
SALT POINT       N/A     89  78  70 W6        29.94F HX 103
NEW IBERIA     MOSUNNY   85  74  69 W9        29.96F
CHENAULT AIRPK MOSUNNY   90  72  55 N6        29.95F HX  96

$$

LAZ027-028-242300-
CENTRAL LOUISIANA

CITY           SKY/WX    TMP DP  RH WIND       PRES   REMARKS
FORT POLK      MOSUNNY   88  70  55 N8        29.97F
ALEXANDRIA INT SUNNY     90  73  57 VRB6      29.95F HX  98
ALEXANDRIA     SUNNY     91  72  53 NW8       29.96F HX  98

$$

LAZ001-002-242300-
NORTHWEST LOUISIANA

CITY           SKY/WX    TMP DP  RH WIND       PRES   REMARKS
SHREVEPORT     MOSUNNY   85  71  63 N7        29.99F
BARKSDALE AFB  SUNNY     86  72  61 VRB2      29.99F
DTN SHREVEPORT MOSUNNY   86  71  60 N5        29.99F

$$

LAZ014-016-242300-
NORTHEAST LOUISIANA

CITY           SKY/WX    TMP DP  RH WIND       PRES   REMARKS
MONROE         PTSUNNY   90  72  55 E6        29.97F HX  97
TALLULAH       SUNNY     89  75  63 N6        29.95F HX  99

$$




USA.gov is the U.S. government's official web portal to all federal, state and local government web resources and services.